LNI228 WIEE-WIDD

Flight info

Callsign LNI228
Flight time 0h 56m
Altitude 33000
Route OSNIS W22 TUSNU
Aircraft B739/M-SDE2E3FGHIRWXY/LB1

Departure

Time 2026-04-30 04:17
Airport Minangkabau International Airport (WIEE)

Arrival

Time 2026-04-30 05:13
Airport Hang Nadim International Airport (WIDD)
Time Latitude Longitude Altitude Speed Heading
2026-04-30 04:01 -0.78631 100.28489 25 ft 0 kts 65°
2026-04-30 04:06 -0.78638 100.28474 26 ft 3 kts 65°
2026-04-30 04:06 -0.78643 100.28462 24 ft 3 kts 65°
2026-04-30 04:06 -0.78652 100.28444 23 ft 3 kts 66°
2026-04-30 04:07 -0.78660 100.28425 24 ft 3 kts 74°
2026-04-30 04:07 -0.78663 100.28406 26 ft 3 kts 101°
2026-04-30 04:07 -0.78659 100.28395 27 ft 1 kts 152°
2026-04-30 04:08 -0.78658 100.28394 26 ft 0 kts 155°
2026-04-30 04:10 -0.78661 100.28396 27 ft 2 kts 155°
2026-04-30 04:10 -0.78680 100.28404 26 ft 4 kts 155°
2026-04-30 04:11 -0.78715 100.28421 24 ft 6 kts 155°
2026-04-30 04:11 -0.78755 100.28439 24 ft 6 kts 155°
2026-04-30 04:11 -0.78793 100.28457 23 ft 6 kts 155°
2026-04-30 04:11 -0.78831 100.28474 16 ft 6 kts 155°
2026-04-30 04:12 -0.78870 100.28476 23 ft 6 kts 208°
2026-04-30 04:12 -0.78897 100.28442 23 ft 7 kts 237°
2026-04-30 04:12 -0.78921 100.28402 24 ft 7 kts 245°
2026-04-30 04:12 -0.78939 100.28359 27 ft 7 kts 246°
2026-04-30 04:13 -0.78958 100.28318 29 ft 6 kts 246°
2026-04-30 04:13 -0.78977 100.28277 31 ft 6 kts 244°
2026-04-30 04:13 -0.79008 100.28246 31 ft 7 kts 200°
2026-04-30 04:13 -0.79068 100.28254 29 ft 11 kts 160°
2026-04-30 04:14 -0.79145 100.28291 28 ft 14 kts 154°
2026-04-30 04:14 -0.79241 100.28336 28 ft 16 kts 155°
2026-04-30 04:14 -0.79349 100.28386 27 ft 18 kts 155°
2026-04-30 04:14 -0.79472 100.28443 25 ft 20 kts 155°
2026-04-30 04:15 -0.79595 100.28500 28 ft 19 kts 155°
2026-04-30 04:15 -0.79713 100.28557 29 ft 18 kts 149°
2026-04-30 04:15 -0.79780 100.28618 29 ft 11 kts 168°
2026-04-30 04:15 -0.79791 100.28596 29 ft 4 kts 309°
2026-04-30 04:16 -0.79765 100.28580 29 ft 4 kts 332°
2026-04-30 04:16 -0.79737 100.28567 29 ft 6 kts 335°
2026-04-30 04:16 -0.79526 100.28468 30 ft 68 kts 335°
2026-04-30 04:16 -0.78899 100.28175 31 ft 128 kts 335°
2026-04-30 04:17 -0.77938 100.27743 102 ft 165 kts 337°
2026-04-30 04:17 -0.76895 100.27238 572 ft 172 kts 333°
2026-04-30 04:17 -0.75818 100.26657 1041 ft 179 kts 331°
2026-04-30 04:17 -0.74708 100.26015 1496 ft 191 kts 330°
2026-04-30 04:18 -0.73541 100.25307 1953 ft 201 kts 330°
2026-04-30 04:18 -0.72347 100.24505 2400 ft 213 kts 326°
2026-04-30 04:18 -0.71021 100.23728 2664 ft 233 kts 345°
2026-04-30 04:18 -0.69386 100.23377 2991 ft 249 kts 344°
2026-04-30 04:19 -0.67709 100.22834 3575 ft 255 kts 338°
2026-04-30 04:19 -0.66067 100.22181 4211 ft 251 kts 338°
2026-04-30 04:19 -0.64539 100.21376 4984 ft 251 kts 318°
2026-04-30 04:19 -0.63606 100.19902 5639 ft 257 kts 288°
2026-04-30 04:20 -0.63442 100.18110 6223 ft 264 kts 262°
2026-04-30 04:20 -0.64025 100.16368 6866 ft 266 kts 245°
2026-04-30 04:20 -0.64827 100.14688 7445 ft 271 kts 245°
2026-04-30 04:20 -0.65643 100.12988 8057 ft 273 kts 245°
2026-04-30 04:21 -0.66463 100.11264 8662 ft 275 kts 245°
2026-04-30 04:21 -0.67280 100.09528 9324 ft 277 kts 245°
2026-04-30 04:21 -0.68272 100.07869 9881 ft 282 kts 225°
2026-04-30 04:21 -0.69918 100.06839 10439 ft 282 kts 195°
2026-04-30 04:22 -0.71852 100.06712 10992 ft 282 kts 167°
2026-04-30 04:22 -0.73693 100.07483 11182 ft 298 kts 140°
2026-04-30 04:22 -0.75047 100.09086 11353 ft 313 kts 115°
2026-04-30 04:22 -0.75634 100.11223 11501 ft 329 kts 94°
2026-04-30 04:23 -0.75498 100.13559 11641 ft 346 kts 78°
2026-04-30 04:23 -0.74901 100.15921 11998 ft 354 kts 73°
2026-04-30 04:23 -0.74172 100.18273 12567 ft 356 kts 72°
2026-04-30 04:23 -0.73422 100.20635 13135 ft 358 kts 73°
2026-04-30 04:24 -0.72686 100.23011 13765 ft 358 kts 73°
2026-04-30 04:24 -0.71968 100.25407 14228 ft 362 kts 74°
2026-04-30 04:24 -0.71263 100.27827 14779 ft 363 kts 74°
2026-04-30 04:24 -0.70563 100.30273 15144 ft 371 kts 74°
2026-04-30 04:25 -0.69860 100.32758 15713 ft 372 kts 75°
2026-04-30 04:25 -0.69161 100.35241 16295 ft 372 kts 75°
2026-04-30 04:25 -0.68458 100.37747 16775 ft 375 kts 75°
2026-04-30 04:25 -0.67754 100.40260 17298 ft 378 kts 75°
2026-04-30 04:26 -0.67041 100.42800 17751 ft 381 kts 75°
2026-04-30 04:26 -0.66326 100.45353 18251 ft 383 kts 75°
2026-04-30 04:26 -0.65603 100.47931 18597 ft 388 kts 75°
2026-04-30 04:26 -0.64872 100.50538 18948 ft 391 kts 75°
2026-04-30 04:27 -0.64136 100.53162 19359 ft 393 kts 75°
2026-04-30 04:27 -0.63396 100.55803 19759 ft 395 kts 75°
2026-04-30 04:27 -0.62653 100.58450 20146 ft 398 kts 75°
2026-04-30 04:27 -0.61902 100.61127 20499 ft 400 kts 75°
2026-04-30 04:28 -0.61149 100.63814 20874 ft 403 kts 75°
2026-04-30 04:28 -0.60284 100.66473 21233 ft 405 kts 68°
2026-04-30 04:28 -0.59000 100.68993 21584 ft 409 kts 58°
2026-04-30 04:28 -0.57370 100.71332 21937 ft 411 kts 55°
2026-04-30 04:29 -0.55686 100.73654 22273 ft 414 kts 55°
2026-04-30 04:29 -0.53984 100.75989 22592 ft 416 kts 55°
2026-04-30 04:29 -0.52280 100.78337 22922 ft 419 kts 55°
2026-04-30 04:29 -0.50573 100.80700 23237 ft 421 kts 56°
2026-04-30 04:30 -0.48864 100.83080 23526 ft 423 kts 56°
2026-04-30 04:30 -0.47148 100.85476 23788 ft 425 kts 56°
2026-04-30 04:30 -0.45431 100.87879 24060 ft 426 kts 56°
2026-04-30 04:30 -0.43709 100.90292 24328 ft 427 kts 56°
2026-04-30 04:31 -0.41982 100.92711 24599 ft 429 kts 56°
2026-04-30 04:31 -0.40247 100.95142 24836 ft 430 kts 56°
2026-04-30 04:31 -0.38508 100.97578 25092 ft 431 kts 56°
2026-04-30 04:31 -0.36764 101.00021 25346 ft 433 kts 56°
2026-04-30 04:32 -0.35009 101.02480 25604 ft 433 kts 56°
2026-04-30 04:32 -0.33261 101.04929 25848 ft 435 kts 55°
2026-04-30 04:32 -0.31503 101.07392 26081 ft 436 kts 55°
2026-04-30 04:32 -0.29738 101.09863 26290 ft 438 kts 55°
2026-04-30 04:33 -0.27969 101.12341 26515 ft 439 kts 55°
2026-04-30 04:33 -0.26195 101.14827 26732 ft 440 kts 55°
2026-04-30 04:33 -0.24435 101.17291 26959 ft 441 kts 55°
2026-04-30 04:33 -0.22628 101.19823 27185 ft 443 kts 55°
2026-04-30 04:34 -0.20835 101.22334 27389 ft 444 kts 55°
2026-04-30 04:34 -0.19040 101.24849 27610 ft 445 kts 55°
2026-04-30 04:34 -0.17241 101.27369 27815 ft 447 kts 55°
2026-04-30 04:34 -0.15433 101.29902 28016 ft 448 kts 55°
2026-04-30 04:35 -0.13621 101.32440 28200 ft 449 kts 55°
2026-04-30 04:35 -0.11806 101.34982 28379 ft 451 kts 55°
2026-04-30 04:35 -0.09981 101.37540 28579 ft 452 kts 55°
2026-04-30 04:35 -0.08154 101.40099 28771 ft 453 kts 55°
2026-04-30 04:36 -0.06324 101.42663 28959 ft 454 kts 55°
2026-04-30 04:36 -0.04493 101.45239 29133 ft 455 kts 55°
2026-04-30 04:36 -0.02690 101.47850 29316 ft 457 kts 56°
2026-04-30 04:36 -0.00906 101.50476 29494 ft 457 kts 56°
2026-04-30 04:37 0.00872 101.53107 29746 ft 457 kts 56°
2026-04-30 04:37 0.02649 101.55737 30019 ft 455 kts 56°
2026-04-30 04:37 0.04420 101.58353 30262 ft 454 kts 56°
2026-04-30 04:37 0.06191 101.60962 30480 ft 454 kts 56°
2026-04-30 04:38 0.07971 101.63581 30697 ft 454 kts 56°
2026-04-30 04:38 0.09744 101.66186 30940 ft 454 kts 56°
2026-04-30 04:38 0.11515 101.68786 31180 ft 453 kts 56°
2026-04-30 04:38 0.13294 101.71398 31351 ft 455 kts 56°
2026-04-30 04:39 0.15075 101.74013 31571 ft 455 kts 56°
2026-04-30 04:39 0.16853 101.76624 31872 ft 454 kts 56°
2026-04-30 04:39 0.18627 101.79228 32171 ft 452 kts 56°
2026-04-30 04:39 0.20369 101.81787 32440 ft 452 kts 56°
2026-04-30 04:40 0.22137 101.84383 32700 ft 452 kts 56°
2026-04-30 04:40 0.23903 101.86977 32879 ft 452 kts 56°
2026-04-30 04:40 0.25677 101.89582 32861 ft 454 kts 56°
2026-04-30 04:41 0.29216 101.94779 32864 ft 451 kts 56°
2026-04-30 04:41 0.32739 101.99954 32873 ft 449 kts 56°
2026-04-30 04:42 0.36245 102.05104 32873 ft 448 kts 56°
2026-04-30 04:42 0.39751 102.10253 32879 ft 448 kts 56°
2026-04-30 04:43 0.43261 102.15408 32878 ft 449 kts 56°
2026-04-30 04:43 0.46784 102.20583 32883 ft 451 kts 56°
2026-04-30 04:44 0.50317 102.25774 32882 ft 453 kts 56°
2026-04-30 04:44 0.53868 102.30990 32868 ft 455 kts 56°
2026-04-30 04:45 0.56510 102.36649 32902 ft 453 kts 81°
2026-04-30 04:45 0.56684 102.39785 32881 ft 453 kts 92°
2026-04-30 04:45 0.56504 102.42927 32877 ft 454 kts 94°
2026-04-30 04:46 0.56118 102.48159 32883 ft 455 kts 94°
2026-04-30 04:46 0.55665 102.54506 32875 ft 455 kts 93°
2026-04-30 04:47 0.55262 102.60823 32873 ft 456 kts 93°
2026-04-30 04:47 0.55071 102.63985 32754 ft 458 kts 93°
2026-04-30 04:47 0.54880 102.67176 32271 ft 460 kts 93°
2026-04-30 04:47 0.54690 102.70349 31722 ft 455 kts 93°
2026-04-30 04:48 0.54503 102.73487 31183 ft 450 kts 93°
2026-04-30 04:48 0.54319 102.76553 30656 ft 446 kts 93°
2026-04-30 04:48 0.54132 102.79674 30097 ft 443 kts 92°
2026-04-30 04:48 0.53948 102.82733 29488 ft 439 kts 92°
2026-04-30 04:49 0.53766 102.85765 28904 ft 435 kts 93°
2026-04-30 04:49 0.53588 102.88723 28357 ft 430 kts 93°
2026-04-30 04:49 0.53410 102.91687 27827 ft 426 kts 93°
2026-04-30 04:49 0.53231 102.94661 27290 ft 421 kts 93°
2026-04-30 04:50 0.53056 102.97570 26767 ft 417 kts 93°
2026-04-30 04:50 0.52885 103.00408 26262 ft 413 kts 93°
2026-04-30 04:50 0.52711 103.03301 25739 ft 410 kts 93°
2026-04-30 04:50 0.52541 103.06128 25239 ft 406 kts 93°
2026-04-30 04:51 0.52374 103.08900 24733 ft 404 kts 93°
2026-04-30 04:51 0.52204 103.11729 24201 ft 401 kts 93°
2026-04-30 04:51 0.52041 103.14445 23708 ft 392 kts 93°
2026-04-30 04:51 0.51879 103.17130 23180 ft 383 kts 93°
2026-04-30 04:52 0.51720 103.19778 22663 ft 380 kts 93°
2026-04-30 04:52 0.51562 103.22405 22168 ft 377 kts 93°
2026-04-30 04:52 0.51403 103.25038 21680 ft 374 kts 93°
2026-04-30 04:52 0.51250 103.27586 21214 ft 371 kts 94°
2026-04-30 04:53 0.51095 103.30150 20747 ft 368 kts 94°
2026-04-30 04:53 0.50940 103.32725 20286 ft 365 kts 94°
2026-04-30 04:53 0.50790 103.35218 19838 ft 363 kts 94°
2026-04-30 04:53 0.50639 103.37727 19386 ft 361 kts 94°
2026-04-30 04:54 0.50488 103.40229 18914 ft 360 kts 94°
2026-04-30 04:54 0.50338 103.42723 18456 ft 359 kts 94°
2026-04-30 04:54 0.50188 103.45213 17960 ft 358 kts 93°
2026-04-30 04:54 0.50040 103.47682 17465 ft 356 kts 93°
2026-04-30 04:55 0.49893 103.50144 17011 ft 353 kts 93°
2026-04-30 04:55 0.49748 103.52578 16546 ft 350 kts 93°
2026-04-30 04:55 0.49604 103.54993 16098 ft 348 kts 93°
2026-04-30 04:55 0.49461 103.57393 15655 ft 345 kts 93°
2026-04-30 04:56 0.49318 103.59782 15207 ft 343 kts 93°
2026-04-30 04:56 0.49177 103.62151 14779 ft 341 kts 93°
2026-04-30 04:56 0.49036 103.64506 14348 ft 339 kts 93°
2026-04-30 04:56 0.48896 103.66852 13899 ft 338 kts 93°
2026-04-30 04:57 0.48757 103.69191 13429 ft 336 kts 92°
2026-04-30 04:57 0.48618 103.71518 12965 ft 334 kts 92°
2026-04-30 04:57 0.48480 103.73828 12510 ft 332 kts 92°
2026-04-30 04:57 0.48343 103.76123 12072 ft 330 kts 92°
2026-04-30 04:58 0.48207 103.78403 11644 ft 328 kts 92°
2026-04-30 04:58 0.48072 103.80676 11216 ft 326 kts 92°
2026-04-30 04:58 0.47937 103.82925 10850 ft 323 kts 92°
2026-04-30 04:58 0.47804 103.85156 10468 ft 320 kts 92°
2026-04-30 04:59 0.47674 103.87330 10351 ft 309 kts 92°
2026-04-30 04:59 0.47548 103.89438 10197 ft 299 kts 92°
2026-04-30 04:59 0.47426 103.91479 10066 ft 289 kts 92°
2026-04-30 04:59 0.47561 103.93447 9813 ft 283 kts 74°
2026-04-30 05:00 0.48156 103.95303 9561 ft 280 kts 71°
2026-04-30 05:00 0.48769 103.97142 9201 ft 278 kts 71°
2026-04-30 05:00 0.49371 103.98968 8893 ft 276 kts 71°
2026-04-30 05:00 0.49962 104.00784 8592 ft 273 kts 71°
2026-04-30 05:01 0.50544 104.02583 8286 ft 272 kts 71°
2026-04-30 05:01 0.51119 104.04374 7985 ft 270 kts 71°
2026-04-30 05:01 0.51688 104.06154 7684 ft 268 kts 71°
2026-04-30 05:01 0.52253 104.07922 7390 ft 267 kts 71°
2026-04-30 05:02 0.52815 104.09684 7094 ft 266 kts 71°
2026-04-30 05:02 0.53375 104.11441 6805 ft 265 kts 71°
2026-04-30 05:02 0.53934 104.13191 6508 ft 264 kts 71°
2026-04-30 05:02 0.54741 104.14816 6185 ft 262 kts 47°
2026-04-30 05:03 0.56222 104.15821 5931 ft 258 kts 19°
2026-04-30 05:03 0.57982 104.16088 5699 ft 258 kts 356°
2026-04-30 05:03 0.59759 104.15808 5485 ft 260 kts 349°
2026-04-30 05:03 0.61546 104.15450 5241 ft 263 kts 349°
2026-04-30 05:04 0.63348 104.15093 4996 ft 264 kts 349°
2026-04-30 05:04 0.65149 104.14745 4753 ft 264 kts 349°
2026-04-30 05:04 0.66955 104.14401 4506 ft 264 kts 349°
2026-04-30 05:04 0.68757 104.14060 4267 ft 263 kts 349°
2026-04-30 05:05 0.70553 104.13739 4030 ft 262 kts 351°
2026-04-30 05:05 0.72345 104.13430 3793 ft 260 kts 351°
2026-04-30 05:05 0.74124 104.13124 3551 ft 258 kts 351°
2026-04-30 05:06 0.77642 104.12515 3094 ft 255 kts 349°
2026-04-30 05:06 0.79256 104.11875 2986 ft 248 kts 328°
2026-04-30 05:06 0.80671 104.10910 2954 ft 248 kts 326°
2026-04-30 05:06 0.82112 104.09922 2895 ft 253 kts 326°
2026-04-30 05:07 0.83578 104.08923 2825 ft 256 kts 327°
2026-04-30 05:07 0.85048 104.07925 2772 ft 255 kts 327°
2026-04-30 05:07 0.86514 104.06933 2711 ft 253 kts 327°
2026-04-30 05:07 0.87974 104.05948 2656 ft 253 kts 327°
2026-04-30 05:08 0.89433 104.04965 2606 ft 253 kts 327°
2026-04-30 05:08 0.90896 104.03981 2545 ft 253 kts 327°
2026-04-30 05:08 0.92357 104.02997 2486 ft 253 kts 327°
2026-04-30 05:08 0.93818 104.02015 2434 ft 253 kts 327°
2026-04-30 05:09 0.95252 104.01051 2380 ft 242 kts 327°
2026-04-30 05:09 0.96612 104.00175 2343 ft 224 kts 335°
2026-04-30 05:09 0.98054 103.99975 2283 ft 202 kts 14°
2026-04-30 05:09 0.99281 104.00555 2194 ft 192 kts 36°
2026-04-30 05:10 1.00278 104.01429 2098 ft 190 kts 43°
2026-04-30 05:10 1.01256 104.02327 2024 ft 192 kts 41°
2026-04-30 05:10 1.02260 104.03216 1930 ft 192 kts 41°
2026-04-30 05:10 1.03239 104.04078 1810 ft 183 kts 41°
2026-04-30 05:11 1.04179 104.04906 1726 ft 178 kts 41°
2026-04-30 05:11 1.05079 104.05699 1654 ft 168 kts 41°
2026-04-30 05:11 1.05951 104.06467 1446 ft 165 kts 41°
2026-04-30 05:11 1.06776 104.07194 1238 ft 151 kts 41°
2026-04-30 05:12 1.07554 104.07880 1056 ft 149 kts 41°
2026-04-30 05:12 1.08332 104.08565 857 ft 148 kts 41°
2026-04-30 05:12 1.09089 104.09232 654 ft 142 kts 41°
2026-04-30 05:12 1.09826 104.09882 477 ft 142 kts 41°
2026-04-30 05:13 1.10572 104.10534 272 ft 142 kts 42°
2026-04-30 05:13 1.11305 104.11188 136 ft 139 kts 41°
2026-04-30 05:13 1.11927 104.11734 135 ft 72 kts 41°
2026-04-30 05:13 1.12210 104.11981 137 ft 46 kts 41°
2026-04-30 05:14 1.12384 104.12131 136 ft 31 kts 38°
2026-04-30 05:14 1.12566 104.12221 135 ft 25 kts 13°
2026-04-30 05:14 1.12599 104.12228 135 ft 4 kts 12°
2026-04-30 05:14 1.12627 104.12234 135 ft 5 kts 11°
2026-04-30 05:15 1.12663 104.12241 135 ft 6 kts 11°
2026-04-30 05:15 1.12704 104.12236 135 ft 6 kts 316°
2026-04-30 05:15 1.12700 104.12195 136 ft 7 kts 237°
2026-04-30 05:15 1.12666 104.12160 136 ft 7 kts 221°
2026-04-30 05:16 1.12626 104.12125 136 ft 8 kts 221°
2026-04-30 05:16 1.12586 104.12089 136 ft 8 kts 221°
2026-04-30 05:16 1.12546 104.12055 136 ft 7 kts 220°
2026-04-30 05:16 1.12508 104.12022 136 ft 7 kts 223°
2026-04-30 05:17 1.12472 104.11990 136 ft 7 kts 221°
2026-04-30 05:17 1.12436 104.11958 136 ft 7 kts 221°
2026-04-30 05:17 1.12401 104.11927 136 ft 7 kts 220°
2026-04-30 05:17 1.12359 104.11891 137 ft 9 kts 221°
2026-04-30 05:18 1.12332 104.11833 137 ft 10 kts 284°
2026-04-30 05:18 1.12367 104.11787 136 ft 6 kts 316°
2026-04-30 05:18 1.12381 104.11774 136 ft 2 kts 316°
2026-04-30 05:18 1.12392 104.11761 136 ft 3 kts 312°
2026-04-30 05:19 1.12405 104.11747 136 ft 3 kts 310°
2026-04-30 05:19 1.12410 104.11741 136 ft 0 kts 310°